Regional Weather Roundup
Issued by NWS Charleston, SC

Current Version | Previous Version | Graphics & Text | Print | Product List | Glossary On
Versions: 1 2 3 4 5 6 7 8 9 10 11 12 13 14 15 16 17 18 19 20 21 22 23 24 25 26 27 28 29 30 31 32 33 34 35 36 37 38 39 40 41 42 43 44 45 46 47 48 49 50
000
ASUS42 KCHS 302110
RWRCHS
REGIONAL WEATHER ROUNDUP
NATIONAL WEATHER SERVICE CHARLESTON SC
500 PM EDT SAT AUG 30 2014

NOTE: "FAIR" INDICATES FEW OR NO CLOUDS BELOW 12,000 FEET WITH NO
SIGNIFICANT WEATHER AND/OR OBSTRUCTIONS TO VISIBILITY.

NOT ALL STATIONS ARE QUALITY CONTROLLED BY THE NATIONAL
WEATHER SERVICE. USE DATA WITH CAUTION...ESPECIALLY
DEWPOINT OBSERVATIONS.

SCZ027-030-031-034>040-042>050-302200-
...SOUTH CAROLINA...

CITY           SKY/WX    TMP DP  RH WIND       PRES   REMARKS
N CHARLESTON   MOSUNNY   89  71  55 SE9       30.11F HX  95
WATERFRONT PRK NOT AVBL
FORT JOHNSON   NOT AVBL
MOUNT PLEASANT FAIR      88  75  66 E6        30.12F HX  97
JOHNS ISLAND   CLEAR     86  75  70 SE6       30.11F HX  95
PINOPOLIS        N/A     91  72  52 SE2       30.03F HX  98
MONCKS CORNER    N/A     90  75  62 SE7       30.11F HX 100
SUMMERVILLE    FAIR      90  72  55 S6        30.11F HX  96
BEAUFORT MCAS  MOSUNNY   88  73  61 S12       30.10F HX  95
BEAUFORT ARPT  MOCLDY    88  77  70 E8        30.10F HX 100
HILTON HEAD IS MOSUNNY   86  77  74 E6        30.12F HX  97
GEORGETOWN     NOT AVBL
WALTERBORO     MOCLDY    91  63  38 S12       30.11S HX  92
ORANGEBURG     MOSUNNY   93  64  38 SE8       30.09F HX  94
BARNWELL       CLOUDY    91  66  43 E9        30.08F HX  94
AIKEN          CLOUDY    97  70  41 S7        30.11F HX 103
MANNING        FAIR      91  70  49 SE5       30.10F HX  97
KINGSTREE      NOT AVBL
COLUMBIA       MOSUNNY   95  58  28 E12       30.08F HX  94
SUMTER         MOSUNNY   94  65  38 SE9       30.09F HX  95
FLORENCE       SUNNY     92  65  40 SE8       30.10F HX  94
MYRTLE BEACH   MOSUNNY   86  73  66 S10       30.14F HX  93
N MYRTLE BEACH SUNNY     85  74  69 S10       30.14F HX  92

$$

GAZ063-065-086>088-099>101-113>116-118-119-134-136>141-150-302200-
...GEORGIA...

CITY           SKY/WX    TMP DP  RH WIND       PRES   REMARKS
SAVANNAH ARPT  MOSUNNY   91  73  55 E15       30.09F HX  99
HUNTER AAF     PTSUNNY   88  75  64 SE10      30.08F HX  98
FORT STEWART   MOSUNNY   92  72  52 E10       30.07F HX  99
STATESBORO     NOT AVBL
SYLVANIA       PTCLDY    88  72  59 SE8       30.09S HX  95
CLAXTON        NOT AVBL
THOMSON        SUNNY     95  73  48 SE5       30.12S HX 103
AUGUSTA-BUSH   MOSUNNY   94  66  39 SE7       30.06F HX  97
AUGUSTA-DANIEL SUNNY     94  64  37 SE9       30.08F HX  95
SWAINSBORO     CLOUDY    97  70  41 S8        30.07F HX 103
VIDALIA          N/A     97  68  38 SE3       30.06F HX 101
ALMA           MOSUNNY   93  69  45 SE9       30.05F HX  98
WAYCROSS       CLOUDY    97  72  44 E8        30.05F HX 106
JESUP            N/A     95  75  52 SE12      30.07F HX 107
BRUNSWICK      MOSUNNY   90  72  55 E10       30.09S HX  96
SAINT SIMONS   SUNNY     86  75  69 E9        30.08F HX  95

$$

SCZ027-028-034-036>038-045-046-048>050-GAZ119-141-302200-
...LAKE AND SUPPLEMENTAL COASTAL OBSERVATIONS...

STATION/POSITION TIME  TEMP    WIND        PRES    WAVE   SWELL
                       AIR SEA DIR/SP/G            HT/PER HT/PER/DIR
                 (UTC) (F)     (DEG/KT/KT) (MB)    (FT/S) (FT/S/D)
UPR LAKE MARION  NOT AVBL
WINYAH BAY       2000   83     120/  7     1020.0F
LAKE MURRAY      2000   94     180/  3/  6 1017.9F
ACE BASIN NERRS  2000   89     130/  4     1020.0F
FORT PULASKI     2100   85     110/  9/ 12 1019.7R
SAPELO ISLAND    2000   88      80/ 10     1020.0S

$$

ANZ835-935-AMZ111-154-330-350-352-354-374-450-454-472-302200-
...C-MAN AND BUOY OBSERVATIONS...

STATION/POSITION TIME  TEMP    WIND        PRES    WAVE   SWELL
                       AIR SEA DIR/SP/G            HT/PER HT/PER/DIR
                 (UTC) (F)     (DEG/KT/KT) (MB)    (FT/S) (FT/S/D)
FOLLY BEACH CMAN 2000   83      90/  9/ 10 1020.6F
BUOY 41004       2100   84 84   90/ 10/ 12 1019.5F   2/ 8   2/ 8
BUOY 41008       2100   83 85   90/ 10/ 10 1018.9F   2/ 8   2/110/ 8
5E ST. MARYS GA  2100      87                N/A     2/ 8
FRYING PAN BUOY  NOT AVBL
BUOY 41025       2100   80     160/  8/ 10 1021.6F   3/ 8   3/ 90/ 8
CAPE LOOKOUT NC  2000   81     170/  6/  7 1021.4F
BUOY 41002       2036   82 83  130/ 10/ 12 1021.9S   3/ 9   3/130/ 9
BUOY 41010       2100   83 85  100/  8/ 10 1019.6F   3/ 8   3/100/ 8
BUOY 41012       NOT AVBL
ST AUGUSTINE FL  2100   82     110/ 11/ 12 1019.3F
CAPERS NEARSHORE 2000   84     100/  8/ 12   N/A
FRIPP NEARSHORE  NOT AVBL


$$



USA.gov is the U.S. government's official web portal to all federal, state and local government web resources and services.